DECAYED

STARLINK-1966, 47567 (Decayed)

Orbit data source: Space-Track

STARLINK-1966, 47567 was a payload satellite owned by SpaceX/Seattle (US) in LEO that was launched on Thu, 04 Feb 2021 UTC via an FALCON 9 launch vehicle from the Air Force Eastern Test Range (AFETR). Payload-class satellites include a variety of spacecraft equipped with specific instruments for various scientific and technological missions. These include communications satellites like Starlink; space stations such as the ISS; scientific satellites like the Hubble; Earth observation satellites from companies like Planet Labs, Umbra, and HawkEye 360; GPS; miniature CubeSats for education and research; and military/defense satellites.

Not visible in the next 10 days
Identifier
47567, 2021-009V
Orbit
Decayed
Country
Flag of USUS
Related business
Manufacturer
SpaceX/Seattle
Mission
Decayed Commercial Communications
Bus & Motor
STARLINK, Unknown motor
Mass
260 kg wet, ~248 kg dry
Launch date (UTC)
2021-02-04 (5 years ago)
Launch vehicle
FALCON 9
Launch site
Air Force Eastern Test Range (AFETR)
Object type
Payload
Rocket body
Debris
Shape & HBR
Box + 1 Pan, 10.1 m
Radar Cross Section
13.562 m², Large (>1 m²)

Expand to show TLE details & history
Last TLE update: 10 months ago

TLE from 10 months ago
0 STARLINK-1966
1 47567U 21009V   25236.13297144  .10921128  12425-4  41151-3 0  9997
2 47567  53.0012 127.3676 0007947 253.5335 106.4840 16.43557308251864
Epoch: 2025-08-24T03:11Z
TLE epoch observation values (Epoch: 2025-08-24T03:11:28.732Z)
Latitude
0.00003°
Longitude
106.84015°
Altitude
158.759 km
Speed
7.811 km/s
True Right ascension
08h 29m 28s
True Declination
0° 00' 00"
Sunlit
Object was in daylight at epoch
Visualization orbit readout
Latitude
Unknown
Longitude
Unknown
Altitude
Unknown
Speed
Unknown
Apparent Right ascension
Unknown
Apparent Declination
Unknown
Sunlit
N/A
Visualization observer readout
Local Sidereal Time
23:08:49
Azimuth
Unknown
Elevation
Unknown
Doppler factor
Unknown
Orbital elements
Apogee altitude
161.845 km
Perigee altitude
151.459 km
Semi-major axis
6,534.789 km
Eccentricity
0.00079
Inclination
53.0012°
RAAN
127.3676°
Arg. of periapsis
253.5335°
True anomaly
106.5713°
Mean anomaly
106.484°
Eccentric anomaly
106.52765°
Mean motion
4.10862 °/min
Orbital period
87.62 mins
BSTAR
0.00041151
Loading maneuver chart data...
Computing Atmospheric mass density...

Documentation

Showing up to 5 results
|